Reflectivity
-20 -20 -20 -20 -20 -20 -20 -2 -20 -20 -20 -20 -20 -20 -20 -20 -20 -20 -20 -20 -20 -20 -20 -20 -20 -20 -20 -20 -20 -20 -20 -20 -20 -20 -20 -20 -20 -20 -20 -20 -4 6 7 12
-20 -20 -20 -20 -20 -20 -2 8 -20 -20 -17 -20 -20 -20 -20 -20 -20 -20 -20 -20 -20 -20 -20 -20 -20 -20 -20 -20 -20 -20 -20 -20 -20 -20 -20 -20 -20 -20 -20 -5 -14 -20 -20 1
-20 -20 -20 -20 -18 -14 -2 -18 -20 -20 -14 -20 -20 -20 -20 -20 -20 -20 -20 -20 -20 -20 -20 -20 -20 -20 -20 -20 -20 -20 -20 -20 -20 -20 -20 -20 -20 -20 -13 -1 2 -2 -7 6
-20 -20 -20 -20 -20 -20 -12 -20 -17 -5 -20 -20 -20 -20 -20 -20 -20 -20 -20 -20 -20 -20 -20 -20 -20 -20 -20 -20 -20 -20 -20 -20 -20 -20 -20 -20 -20 -20 -20 -10 -6 0 -8 -6
-14 -20 -20 -20 -20 -18 -20 14 11 -12 -20 -20 -20 -20 -20 -20 -20 -20 -20 -20 -20 -20 -20 -20 -20 -20 -20 -20 -20 -20 -20 -20 -20 -20 -20 -20 -20 -20 -20 -20 -15 3 1 0
-3 -17 -20 -20 -20 8 -6 12 -0 5 -15 -17 -20 -20 -9 -8 -20 -20 -20 -20 -20 -20 -20 -20 -20 -20 -20 -20 -20 -20 -20 -20 -20 -20 -20 -20 -20 -20 -20 -20 -20 -14 -2 6
-9 7 -8 -20 -15 -14 8 7 14 14 7 -20 -19 -12 -20 10 -20 -20 -20 -20 -20 -20 -20 -20 -20 -20 -20 -20 -20 -20 -20 -20 -20 -20 -20 -20 -20 -20 -20 -20 -20 -20 -14 -20
18 19 10 -2 -5 -18 1 13 9 6 -19 -20 -20 -17 4 -6 -20 -20 -20 -20 -20 -20 -20 -20 -20 -20 -20 -20 -20 -20 -20 -20 -20 -20 -20 -20 -20 -20 -20 -20 -20 -20 -20 -20
16 27 9 11 8 19 26 13 8 23 1 17 12 3 -20 -20 -19 -20 -20 -20 -20 -20 -20 -20 -20 -20 -20 -20 -20 -20 -20 -20 -20 -20 -20 -5 -20 -20 -20 -20 -20 -20 -20 -20
21 -5 11 15 -17 9 21 6 8 -9 -0 -20 -0 -6 27 26 -20 -10 -17 -20 -20 -20 -20 -20 -20 -20 -20 -20 -20 -20 -20 -20 -20 -20 -20 -12 -20 -20 -20 -20 -20 -20 -20 -20
11 -13 20 -11 -15 1 11 19 -10 1 -17 22 4 11 5 -19 -20 -20 -20 -20 -20 -20 -20 -20 -20 -20 -20 -20 -20 -20 -20 -20 -20 -20 7 -20 -4 -20 -20 -20 -20 -20 -17 -18
11 21 18 10 3 11 -20 -15 -20 3 -16 -20 -19 15 10 -20 -20 -20 -20 -20 -20 -20 -20 -20 -20 9 -20 -4 12 -20 -1 -20 -20 -19 10 6 -11 -20 -20 -20 -20 -20 -20 -17
-20 -4 19 3 -9 -10 24 3 -8 -10 4 -18 -4 15 -1 -20 -20 11 -20 -20 -20 -20 -20 -20 -20 -2 3 7 19 8 6 1 -6 -6 15 14 12 -16 -11 18 -20 -20 -14 2
-18 15 22 13 4 -12 13 -2 -20 -7 3 7 -19 4 16 -20 -6 0 -19 -12 -19 -20 -20 -20 -20 12 6 22 26 23 11 -5 9 7 3 2 12 14 27 -13 -20 -5 -19 -16
14 25 12 21 20 -19 18 -13 22 21 -20 -20 10 -20 -2 -17 -0 -13 -15 -15 1 -8 -20 -20 -20 9 16 15 20 26 23 21 20 -5 16 1 20 10 25 12 -19 3 3 1
-20 -17 -20 -10 -14 -16 -20 -20 -20 -20 -20 -20 -20 25 -20 -20 -20 -16 1 4 1 -20 -9 -9 -5 17 32 17 23 20 20 21 20 12 8 21 14 21 20 -20 -18 -8 -11 -6
-3 -19 -5 -1 -14 2 3 -20 -20 -20 -19 0 14 24 1 -20 -14 -14 -0 12 13 12 6 19 30 41 33 31 25 23 24 21 24 20 29 15 6 21 18 13 8 -14 -20 -9
10 17 9 -11 -8 -12 -8 -20 -20 5 -20 -16 1 3 21 -1 -0 3 8 1 10 23 7 21 34 39 38 35 34 28 24 25 24 22 23 27 20 19 16 13 1 -8 7 23
-12 -10 -20 -20 -20 -20 8 -0 -12 4 5 -20 -1 3 17 15 12 -4 1 17 20 27 23 28 32 36 38 35 35 39 33 33 32 21 31 32 26 24 9 19 15 6 10 21
-20 -20 -20 -20 -20 9 16 3 -20 -20 11 -1 -20 -20 -20 -11 20 0 3 7 18 18 14 13 20 20 36 41 37 38 40 36 20 38 43 39 35 31 23 23 24 7 26 41
-13 -12 5 -12 3 3 -19 -20 -20 13 14 2 -3 -18 -20 -20 1 4 5 14 24 22 -20 -11 -20 -5 10 25 34 33 34 34 34 32 43 39 26 25 30 31 30 36 40 40
9 9 10 11 4 17 -19 -20 -17 7 3 5 -1 0 -0 -8 1 -3 2 5 -2 2 24 -10 -17 -19 1 9 18 33 33 25 34 42 37 35 32 32 24 28 30 24 31 27
15 2 12 -2 2 6 4 2 4 2 -1 1 3 0 1 1 -7 -1 -5 -19 -20 -20 -19 -13 -20 -20 -20 -19 -3 15 20 30 27 21 26 32 32 30 24 23 30 22 17 14
-20 -18 -2 -14 5 3 -2 -16 1 -13 -4 -7 -6 -8 -20 -20 -20 -20 -20 -20 -20 -20 -20 -20 -20 -20 -20 -20 -20 -10 -14 14 17 20 16 18 -1 12 24 30 22 17 17 17
-4 -14 -11 1 1 -5 -20 -8 -0 -4 -20 -20 -20 -20 -20 -20 -20 -20 -20 -20 -20 -20 -20 -20 -20 -20 -20 -20 -20 -20 -20 -13 -6 5 9 10 13 14 9 8 15 15 17 17
-19 -20 -7 3 3 -4 -5 -14 -13 -20 -20 -20 -20 -20 -20 -20 -20 -20 -20 -20 -20 -20 -20 -20 -20 -20 -20 -20 -20 -20 -20 -20 -20 -2 -17 -9 -6 -18 -0 -6 -15 -3 6 8
Wind_Speed
23 20 24 34 28 24 22 20 21 16 20 19 22 20 20 19 20 19 19 16 17 17 16 17 17 17 16 12 13 16 17 19 14 11 13 12 10 7 7 7 11 13 11 11
20 27 31 24 24 24 22 19 17 15 17 8 15 21 21 21 21 21 20 20 21 21 20 20 18 17 17 16 14 17 18 19 17 13 13 11 9 8 10 7 11 10 11 10
27 22 24 25 21 21 19 18 19 18 12 13 14 23 24 29 25 22 21 19 18 18 18 18 19 19 19 17 16 16 18 20 19 18 13 10 11 8 9 9 9 10 12 9
25 23 18 22 23 20 20 20 21 18 14 14 13 14 14 8 9 8 4 4 7 9 10 12 16 20 19 18 16 19 19 20 19 20 16 19 14 12 10 9 9 11 9 11
18 21 19 23 23 18 16 18 19 16 16 16 20 10 17 5 11 12 4 4 5 7 9 11 14 18 20 19 17 16 18 20 20 20 18 15 14 11 10 11 13 11 12 12
17 12 15 14 19 14 21 11 11 13 12 15 18 17 11 14 5 5 4 2 4 5 9 12 12 13 17 18 19 17 18 20 21 21 21 19 18 15 12 12 10 8 7 7
15 18 16 13 12 16 17 16 9 9 11 11 10 14 10 14 8 3 2 3 7 9 12 15 18 17 14 18 19 16 20 21 21 21 21 20 19 17 15 13 11 12 9 9
15 7 14 16 17 12 19 16 7 11 13 14 12 8 3 15 7 3 2 5 5 11 13 15 18 21 15 15 19 21 20 21 22 21 22 18 19 11 11 13 10 9 10 10
13 5 13 15 11 16 17 16 18 7 10 4 10 9 10 9 8 3 11 11 12 14 16 17 18 19 23 15 17 15 16 19 20 17 15 16 14 15 13 13 10 9 9 10
6 7 12 15 11 7 14 14 7 6 5 6 9 9 12 3 8 6 8 12 14 16 16 16 17 20 21 21 10 11 15 17 15 15 11 10 15 15 13 12 12 10 8 9
10 10 13 14 13 14 6 10 6 6 4 5 2 7 11 10 9 10 11 13 14 16 15 14 16 19 23 27 5 9 10 12 15 12 9 12 12 13 13 12 12 11 9 10
11 4 12 19 14 9 14 11 10 5 6 0 5 4 6 8 9 12 15 13 14 14 14 14 16 19 21 23 8 6 5 8 13 11 11 15 11 12 14 13 12 11 10 11
6 5 10 6 9 6 9 7 4 4 3 6 3 4 3 11 13 19 12 13 15 16 17 16 18 19 20 20 18 4 5 8 10 10 10 11 9 10 12 12 11 10 11 9
3 5 8 6 12 14 8 10 7 4 4 1 5 9 21 20 20 19 17 16 15 17 20 18 17 19 21 19 17 13 6 8 9 10 10 5 5 8 11 12 10 10 9 10
6 6 8 5 11 12 11 10 6 4 2 3 9 11 15 15 13 14 14 15 17 19 20 20 19 17 21 19 17 15 14 3 7 8 6 5 4 5 6 9 8 9 9 8
13 5 8 12 10 10 10 6 2 2 3 6 8 11 13 14 14 16 16 15 16 16 18 18 18 19 20 18 17 15 15 14 12 13 12 4 5 7 6 5 6 7 7 8
7 5 5 4 5 7 7 9 6 5 20 13 9 13 15 15 15 15 13 13 13 15 14 14 15 13 13 16 16 16 15 13 15 14 12 13 11 10 10 5 5 6 4 7
4 3 3 4 5 5 7 11 8 17 18 16 14 10 11 11 11 12 12 12 12 11 13 13 12 13 13 15 15 14 15 15 15 17 15 13 11 12 10 10 10 10 8 11
7 4 2 1 5 14 8 9 10 8 10 16 14 13 4 9 7 14 13 10 10 10 9 9 10 10 12 14 14 14 14 14 14 17 16 12 12 12 13 13 12 10 11 12
4 4 1 2 4 3 8 17 14 8 5 16 14 13 10 8 1 6 10 10 10 9 8 9 12 13 13 14 14 12 14 14 17 17 14 12 10 14 14 12 12 11 13 11
5 5 7 2 2 8 12 21 20 4 5 9 11 11 15 8 6 5 8 9 9 10 13 12 13 14 14 13 12 14 14 15 15 12 10 11 10 13 11 10 13 11 9 9
8 6 5 4 2 5 19 9 8 5 7 8 10 10 10 9 8 8 9 9 12 13 14 13 12 13 14 15 13 14 15 13 12 13 13 12 14 14 10 14 10 9 9 8
4 6 5 7 4 4 8 9 8 7 7 9 9 8 7 7 7 6 7 9 10 12 10 10 12 12 13 14 14 14 12 11 12 12 13 12 13 14 16 13 11 9 9 9
3 8 4 6 5 8 8 9 10 10 9 9 10 10 9 8 7 7 8 9 10 11 12 11 12 13 14 13 14 14 13 10 10 8 10 11 13 15 14 10 10 10 9 7
5 5 4 5 7 8 9 9 8 10 10 9 8 9 9 8 8 8 9 10 10 10 10 11 12 12 14 14 14 14 14 12 8 9 9 9 9 12 13 13 11 9 12 13
6 4 3 4 3 7 6 7 8 8 8 8 9 8 10 11 10 9 9 10 10 11 11 11 13 13 14 14 15 15 14 13 11 9 8 7 7 7 7 9 10 24 22 24
Wind_Direction
203 210 214 218 221 232 253 250 237 225 242 231 223 239 250 245 250 220 229 250 256 247 246 229 223 228 218 229 207 203 189 186 182 195 200 197 176 179 199 194 214 206 213 205
211 220 223 227 221 226 241 252 259 272 267 225 254 259 264 258 253 249 247 237 242 246 240 243 241 227 217 219 212 203 200 189 185 197 209 199 155 186 204 187 204 228 214 221
222 221 224 229 220 221 222 234 247 261 262 250 255 264 258 244 242 246 249 254 261 265 268 264 244 236 243 223 214 212 204 195 186 200 202 181 178 174 203 187 202 205 220 202
226 224 212 218 217 215 220 225 248 260 257 251 235 266 179 179 209 196 200 265 292 294 283 271 267 261 249 239 219 210 209 202 193 192 196 195 186 188 197 189 197 215 195 210
215 221 220 210 212 205 229 233 239 240 252 257 259 242 265 165 179 137 132 7 303 301 288 275 273 274 257 252 232 202 210 207 195 189 207 195 195 192 181 186 187 204 210 204
223 202 201 203 192 216 227 218 223 240 243 243 242 239 227 172 134 108 81 308 334 331 325 304 281 265 266 247 242 208 202 206 199 193 204 192 192 194 183 182 172 195 203 199
178 213 188 195 173 194 202 199 183 202 209 240 217 208 232 104 110 92 314 336 7 2 2 337 322 301 259 242 236 230 196 210 200 191 196 191 195 195 183 176 188 182 187 200
182 196 173 181 195 180 196 192 212 215 209 216 137 223 167 97 135 222 256 44 351 11 4 348 329 317 288 253 242 225 199 213 200 191 194 189 195 183 186 182 184 197 170 201
193 214 163 218 190 191 208 216 238 262 231 271 186 137 126 155 80 12 307 358 24 16 6 349 338 331 321 277 239 206 206 212 198 180 192 183 184 189 188 172 189 188 178 171
221 127 187 185 190 202 222 191 184 229 238 226 209 201 110 74 65 10 349 9 18 3 4 353 347 337 326 301 204 192 209 211 153 161 195 177 176 194 177 172 183 169 165 181
269 140 184 182 201 184 172 173 224 250 308 292 218 103 87 54 21 356 358 28 15 1 4 4 355 346 339 331 192 174 199 164 153 156 172 172 194 176 174 170 179 151 169 179
215 234 170 198 204 259 189 195 208 238 178 283 321 60 75 47 20 8 41 28 15 12 8 14 10 0 352 342 67 106 192 131 162 154 165 184 200 175 175 174 170 162 166 177
180 207 175 176 179 172 179 169 115 85 301 198 221 92 157 33 14 50 51 42 29 20 19 19 21 10 353 346 341 126 135 135 141 153 176 182 194 170 178 180 158 149 174 176
247 197 223 261 171 171 166 138 171 193 211 202 242 341 34 27 36 42 43 34 28 27 21 22 25 14 353 351 343 345 127 139 149 166 180 163 160 178 186 179 151 159 173 172
22 110 74 60 111 141 153 142 156 153 290 297 340 26 34 33 40 43 34 34 25 24 20 17 22 22 352 353 354 4 15 51 157 160 128 141 197 201 180 149 150 165 159 165
338 72 83 91 93 113 113 101 190 229 261 277 294 67 54 50 48 38 28 25 24 19 16 11 8 30 356 356 0 7 14 23 39 48 46 58 141 157 150 135 152 142 163 167
2 355 124 104 93 124 117 46 31 100 45 25 23 1 29 53 46 32 23 31 24 17 11 6 1 10 10 354 7 12 17 19 39 41 30 41 47 53 39 63 127 160 167 158
164 192 308 117 199 156 71 37 38 73 55 34 18 38 66 94 84 49 30 24 23 20 13 9 2 2 10 10 11 15 23 24 35 37 29 26 43 49 41 52 55 56 59 67
14 319 87 175 82 113 92 42 17 337 61 20 14 14 15 160 178 56 28 20 17 16 23 7 5 356 7 19 10 21 29 28 30 43 19 11 42 51 52 52 49 46 59 58
71 310 322 173 145 145 36 5 356 296 94 9 15 11 4 342 123 40 11 8 10 15 25 25 15 16 21 11 16 23 27 19 36 34 12 13 31 57 50 54 58 57 61 63
25 19 18 94 40 91 353 315 310 267 39 14 23 27 35 61 46 31 12 16 8 5 25 35 38 28 26 22 16 29 27 22 26 39 28 24 38 57 64 62 62 55 64 61
13 328 32 346 336 96 355 12 39 345 36 28 31 34 54 61 52 38 25 16 20 19 10 27 39 40 27 22 21 28 28 22 28 27 26 33 39 38 43 48 64 70 66 86
44 23 6 21 53 51 34 60 33 41 57 38 39 39 49 52 60 38 27 26 29 23 27 18 34 45 43 30 27 25 15 27 31 37 36 32 41 44 45 33 34 50 49 43
63 7 57 181 80 67 67 68 55 54 52 40 30 26 26 35 25 38 33 29 27 26 22 19 31 34 39 38 29 25 15 19 41 55 54 55 49 51 39 47 41 38 34 46
8 19 354 91 130 115 72 57 53 43 30 29 40 33 21 20 32 29 32 31 31 28 28 28 26 30 31 33 31 24 18 11 30 39 47 50 71 70 69 52 40 46 48 44
359 11 320 53 29 78 80 62 47 45 36 22 19 31 34 20 23 24 33 31 26 32 27 28 29 31 29 30 27 20 15 20 19 31 48 40 54 63 85 83 67 51 55 58